Flag for U.S.A. Weather past 2 weeks in Ontario, California, U.S.A.

Now
76 °F

High level clouds.


Feels Like: 78 °F
Forecast: 62 / 89 °F
Wind: 6 mph from Northwest

Location: Ontario International Airport

Current Time: May 30, 2015 at 12:16:11 PM

Latest Report: May 30, 2015 at 10:53 AM


Visibility: 7 mi

Pressure: 29.92 "Hg

Humidity: 52%

Dew point: 57 °F

Location of OntarioLocation

Historic Weather in Ontario — Graph

°F

Ontario temperature yesterday

Maximum temperature yesterday: 88 °F (at 2:53 PM)
Minimum temperature yesterday: 57 °F (at 3:53 AM)
Average temperature yesterday: 70 °F

Past Weeks' High & Low Weather Summary

 TemperatureHumidityPressure
High88 °F (May 29, 2:53 PM)93% (May 23, 4:53 AM)30.09 "Hg (May 23, 4:53 AM)
Low53 °F (May 16, 5:53 AM)27% (May 29, 3:53 PM)29.80 "Hg (May 15, 4:53 PM)
Average63 °F67%29.95 "Hg
* Reported May 15 10:53 AM — May 30 10:53 AM, Ontario, Weather by CustomWeather, © 2015

Note: Actual official high and low records may vary slightly from our data, if they occured in-between our weather recording intervals... More about our weather records

Advertising

Ontario weather history for previous 24 hours

 ConditionsComfort  
Time TempWeatherWind HumidityBarometerVisibility
10:53 AM
Sat, May 30
76 °FHigh level clouds.6 mph52%29.92 "Hg7 mi
9:53 AM73 °FPartly sunny.6 mph57%29.92 "Hg6 mi
8:53 AM68 °FPartly sunny.No wind68%29.92 "Hg6 mi
7:53 AM64 °FPartly sunny.3 mph75%29.91 "Hg5 mi
6:53 AM61 °FPartly sunny.No wind83%29.89 "Hg4 mi
5:53 AM59 °FFog.No wind87%29.89 "Hg4 mi
4:53 AM60 °FHaze.3 mph83%29.87 "Hg5 mi
3:53 AM60 °FHaze.No wind83%29.86 "Hg6 mi
2:53 AM61 °FPassing clouds.No wind81%29.86 "Hg7 mi
1:53 AM62 °FPassing clouds.6 mph80%29.87 "Hg7 mi
12:53 AM62 °FPassing clouds.5 mph78%29.88 "Hg8 mi
11:53 PM
Fri, May 29
64 °FPassing clouds.5 mph75%29.89 "Hg8 mi
10:53 PM66 °FPassing clouds.5 mph70%29.89 "Hg10 mi
9:53 PM68 °FPassing clouds.6 mph65%29.89 "Hg10 mi
8:53 PM70 °FPartly sunny.8 mph61%29.87 "Hg10 mi
7:53 PM75 °FPartly sunny.9 mph52%29.85 "Hg10 mi
6:53 PM81 °FPartly sunny.9 mph41%29.83 "Hg10 mi
5:53 PM83 °FPartly sunny.12 mph36%29.83 "Hg10 mi
4:53 PM87 °FPartly sunny.12 mph32%29.83 "Hg10 mi
3:53 PM88 °FPartly sunny.14 mph27%29.84 "Hg10 mi
2:53 PM88 °FPartly sunny.14 mph28%29.86 "Hg10 mi
1:53 PM87 °FPartly sunny.13 mph30%29.86 "Hg10 mi
12:53 PM84 °FPartly sunny.8 mph32%29.88 "Hg9 mi
Weather by CustomWeather, © 2015

See weather overviewHow to use our weather pages